When you browse on this site, cookies collect data to enhance your experience and personalize the content and advertising you see.
Visit our Privacy Policy to learn more. By continuing to use the site, you agree to this use of cookies and data.
  • Em Portugal
  • Lista de países
  • Para 7 dias
  • Temperatura da água
  • Mapas de satélite
  • Mapa do tempo
  • Widgets de tempo
  • user-avatar
    Iniciar Sessão

    Previsão horária em Trushniki

    Hoje, 20 Abril, Sábado

    Tempo Temperatura Precipitação Vento Pressão Humidade
    00:00 +3°C° 0 mm 1 m/s 754 mmHg 74%
    01:00 +3°C° 0 mm 1 m/s 754 mmHg 76%
    02:00 +3°C° 0 mm 1 m/s 754 mmHg 78%
    03:00 +2°C° 0 mm 1 m/s 754 mmHg 80%
    04:00 +2°C° 0 mm 1 m/s 754 mmHg 83%
    05:00 +2°C° 0 mm 1 m/s 754 mmHg 82%
    06:00 +2°C° 0 mm 1 m/s 754 mmHg 80%
    07:00 +3°C° 0 mm 1 m/s 754 mmHg 79%
    08:00 +3°C° 0 mm 2 m/s 754 mmHg 73%
    09:00 +4°C° 0 mm 2 m/s 754 mmHg 66%
    10:00 +6°C° 0 mm 2 m/s 754 mmHg 61%
    11:00 +6°C° 0 mm 2 m/s 755 mmHg 58%
    12:00 +7°C° 0 mm 3 m/s 755 mmHg 55%
    13:00 +7°C° 0 mm 3 m/s 755 mmHg 51%
    14:00 +7°C° 0 mm 3 m/s 755 mmHg 52%
    15:00 +8°C° 0 mm 3 m/s 755 mmHg 53%
    16:00 +8°C° 0 mm 3 m/s 755 mmHg 54%
    17:00 +7°C° 0 mm 2 m/s 755 mmHg 59%
    18:00 +6°C° 0 mm 2 m/s 755 mmHg 64%
    19:00 +5°C° 0 mm 2 m/s 755 mmHg 70%
    20:00 +6°C° 0 mm 1 m/s 755 mmHg 73%
    21:00 +5°C° 0 mm 1 m/s 755 mmHg 76%
    22:00 +5°C° 0 mm 1 m/s 756 mmHg 79%
    23:00 +5°C° 0 mm 1 m/s 756 mmHg 81%

    Amanhã, 21 Abril, Domingo

    Tempo Temperatura Precipitação Vento Pressão Humidade
    00:00 +4°C° 0 mm 1 m/s 756 mmHg 83%
    01:00 +4°C° 0 mm 1 m/s 756 mmHg 84%
    02:00 +4°C° 0 mm 1 m/s 756 mmHg 86%
    03:00 +4°C° 0 mm 1 m/s 756 mmHg 87%
    04:00 +3°C° 0 mm 1 m/s 756 mmHg 88%
    05:00 +4°C° 0 mm 1 m/s 756 mmHg 86%
    06:00 +4°C° 0 mm 1 m/s 756 mmHg 85%
    07:00 +5°C° 0 mm 1 m/s 756 mmHg 83%
    08:00 +5°C° 0 mm 2 m/s 756 mmHg 77%
    09:00 +6°C° 0 mm 2 m/s 756 mmHg 71%
    10:00 +7°C° 0 mm 2 m/s 756 mmHg 64%
    11:00 +8°C° 0.1 mm 3 m/s 756 mmHg 60%
    12:00 +9°C° 0.1 mm 3 m/s 756 mmHg 57%
    13:00 +8°C° 0.1 mm 4 m/s 756 mmHg 53%
    14:00 +8°C° 0 mm 4 m/s 755 mmHg 53%
    15:00 +8°C° 0 mm 4 m/s 755 mmHg 52%
    16:00 +8°C° 0 mm 4 m/s 755 mmHg 52%
    17:00 +7°C° 0 mm 4 m/s 755 mmHg 56%
    18:00 +8°C° 0 mm 3 m/s 755 mmHg 59%
    19:00 +7°C° 0 mm 3 m/s 755 mmHg 63%
    20:00 +6°C° 0 mm 2 m/s 755 mmHg 68%
    21:00 +5°C° 0 mm 2 m/s 755 mmHg 73%
    22:00 +5°C° 0 mm 1 m/s 755 mmHg 78%
    23:00 +5°C° 0 mm 1 m/s 755 mmHg 81%

    Depois de amanhã, 22 Abril, Segunda-feira

    Tempo Temperatura Precipitação Vento Pressão Humidade
    00:00 +4°C° 0 mm 1 m/s 755 mmHg 83%
    01:00 +3°C° 0 mm 2 m/s 755 mmHg 86%
    02:00 +3°C° 0 mm 2 m/s 755 mmHg 88%
    03:00 +2°C° 0 mm 2 m/s 755 mmHg 89%
    04:00 +2°C° 0 mm 2 m/s 755 mmHg 91%
    05:00 +3°C° 0 mm 2 m/s 755 mmHg 89%
    06:00 +3°C° 0 mm 2 m/s 755 mmHg 87%
    07:00 +4°C° 0 mm 2 m/s 755 mmHg 85%
    08:00 +5°C° 0 mm 3 m/s 755 mmHg 78%
    09:00 +8°C° 0 mm 3 m/s 755 mmHg 71%
    10:00 +9°C° 0 mm 3 m/s 755 mmHg 64%
    11:00 +10°C° 0 mm 3 m/s 755 mmHg 57%
    12:00 +11°C° 0 mm 3 m/s 754 mmHg 51%
    13:00 +12°C° 0 mm 3 m/s 754 mmHg 44%
    14:00 +13°C° 0 mm 3 m/s 754 mmHg 43%
    15:00 +13°C° 0 mm 3 m/s 753 mmHg 42%
    16:00 +13°C° 0 mm 4 m/s 753 mmHg 41%
    17:00 +13°C° 0 mm 3 m/s 753 mmHg 47%
    18:00 +12°C° 0 mm 3 m/s 753 mmHg 52%
    19:00 +12°C° 0 mm 2 m/s 753 mmHg 57%
    20:00 +10°C° 0 mm 2 m/s 753 mmHg 61%
    21:00 +9°C° 0 mm 2 m/s 753 mmHg 64%
    22:00 +9°C° 0 mm 3 m/s 753 mmHg 67%
    23:00 +8°C° 0 mm 3 m/s 752 mmHg 73%

    23 Abril, Terça-feira

    Tempo Temperatura Precipitação Vento Pressão Humidade
    00:00 +7°C° 0 mm 2 m/s 752 mmHg 78%
    01:00 +6°C° 0 mm 2 m/s 752 mmHg 84%
    02:00 +5°C° 0 mm 3 m/s 752 mmHg 84%
    03:00 +4°C° 0 mm 3 m/s 752 mmHg 84%
    04:00 +4°C° 0 mm 3 m/s 751 mmHg 85%
    05:00 +4°C° 0 mm 3 m/s 751 mmHg 81%
    06:00 +5°C° 0 mm 3 m/s 751 mmHg 78%
    07:00 +5°C° 0 mm 4 m/s 751 mmHg 74%
    08:00 +7°C° 0 mm 4 m/s 751 mmHg 68%
    09:00 +8°C° 0 mm 4 m/s 751 mmHg 62%
    10:00 +9°C° 0 mm 5 m/s 751 mmHg 55%
    11:00 +9°C° 0.1 mm 5 m/s 751 mmHg 56%
    12:00 +10°C° 0.1 mm 5 m/s 750 mmHg 57%
    13:00 +10°C° 0.1 mm 5 m/s 750 mmHg 58%
    14:00 +10°C° 0.1 mm 5 m/s 750 mmHg 59%
    15:00 +11°C° 0.1 mm 4 m/s 750 mmHg 60%
    16:00 +11°C° 0.1 mm 4 m/s 750 mmHg 61%
    17:00 +10°C° 0 mm 4 m/s 750 mmHg 64%
    18:00 +10°C° 0 mm 3 m/s 750 mmHg 67%
    19:00 +9°C° 0 mm 2 m/s 750 mmHg 70%
    20:00 +8°C° 0.1 mm 2 m/s 751 mmHg 74%
    21:00 +7°C° 0.1 mm 2 m/s 751 mmHg 78%
    22:00 +6°C° 0.1 mm 2 m/s 751 mmHg 82%
    23:00 +6°C° 0 mm 2 m/s 751 mmHg 84%

    24 Abril, Quarta-feira

    Tempo Temperatura Precipitação Vento Pressão Humidade
    00:00 +5°C° 0 mm 2 m/s 751 mmHg 86%
    01:00 +5°C° 0 mm 2 m/s 751 mmHg 88%
    02:00 +4°C° 0 mm 2 m/s 751 mmHg 88%
    03:00 +4°C° 0 mm 2 m/s 751 mmHg 89%
    04:00 +4°C° 0 mm 2 m/s 751 mmHg 90%
    05:00 +4°C° 0 mm 2 m/s 751 mmHg 87%
    06:00 +5°C° 0 mm 2 m/s 751 mmHg 84%
    07:00 +6°C° 0 mm 2 m/s 751 mmHg 80%
    08:00 +6°C° 0 mm 2 m/s 751 mmHg 78%
    09:00 +7°C° 0 mm 3 m/s 750 mmHg 76%
    10:00 +8°C° 0 mm 3 m/s 750 mmHg 74%
    11:00 +8°C° 0.2 mm 3 m/s 750 mmHg 78%
    12:00 +7°C° 0.2 mm 3 m/s 750 mmHg 83%
    13:00 +7°C° 0.2 mm 3 m/s 750 mmHg 87%
    14:00 +8°C° 0.1 mm 3 m/s 750 mmHg 86%
    15:00 +8°C° 0.1 mm 3 m/s 750 mmHg 86%
    16:00 +9°C° 0.1 mm 3 m/s 750 mmHg 85%
    17:00 +9°C° 0.1 mm 3 m/s 750 mmHg 82%
    18:00 +9°C° 0.1 mm 3 m/s 750 mmHg 78%
    19:00 +8°C° 0.1 mm 4 m/s 751 mmHg 75%
    20:00 +8°C° 0 mm 3 m/s 751 mmHg 79%
    21:00 +7°C° 0 mm 2 m/s 751 mmHg 82%
    22:00 +6°C° 0 mm 2 m/s 751 mmHg 86%
    23:00 +6°C° 0 mm 2 m/s 751 mmHg 86%

    25 Abril, Quinta-feira

    Tempo Temperatura Precipitação Vento Pressão Humidade
    00:00 +7°C° 0 mm 2 m/s 751 mmHg 86%
    01:00 +7°C° 0 mm 2 m/s 751 mmHg 86%
    02:00 +6°C° 0 mm 2 m/s 752 mmHg 88%
    03:00 +6°C° 0 mm 2 m/s 752 mmHg 90%
    04:00 +5°C° 0 mm 2 m/s 752 mmHg 91%
    05:00 +5°C° 0 mm 3 m/s 752 mmHg 88%
    06:00 +7°C° 0 mm 3 m/s 752 mmHg 85%
    07:00 +7°C° 0 mm 3 m/s 752 mmHg 82%
    08:00 +9°C° 0 mm 3 m/s 752 mmHg 74%
    09:00 +10°C° 0 mm 3 m/s 753 mmHg 67%
    10:00 +11°C° 0 mm 3 m/s 753 mmHg 60%
    11:00 +13°C° 0 mm 3 m/s 752 mmHg 56%
    12:00 +14°C° 0 mm 4 m/s 752 mmHg 52%
    13:00 +15°C° 0 mm 4 m/s 752 mmHg 48%
    14:00 +15°C° 0 mm 4 m/s 752 mmHg 47%
    15:00 +17°C° 0 mm 4 m/s 751 mmHg 46%
    16:00 +17°C° 0 mm 4 m/s 751 mmHg 45%
    17:00 +16°C° 0 mm 3 m/s 751 mmHg 51%
    18:00 +14°C° 0 mm 3 m/s 750 mmHg 58%
    19:00 +13°C° 0 mm 3 m/s 750 mmHg 64%
    20:00 +13°C° 0.2 mm 3 m/s 750 mmHg 69%
    21:00 +12°C° 0.2 mm 3 m/s 750 mmHg 73%
    22:00 +11°C° 0.2 mm 3 m/s 750 mmHg 78%
    23:00 +10°C° 0 mm 3 m/s 750 mmHg 81%
    Mostrar mais